Regional Weather Roundup
Issued by NWS Sterling, VA

Home | Current Version | Previous Version | Graphics & Text | Print | Product List | Glossary On
Versions: 1 2 3 4 5 6 7 8 9 10 11 12 13 14 15 16 17 18 19 20 21 22 23 24 25 26 27
000
ASUS41 KLWX 251510
RWRLWX

REGIONAL WEATHER ROUNDUP
NATIONAL WEATHER SERVICE BALTIMORE MD/WASHINGTON DC
1100 AM EDT SAT MAR 25 2017

Note: "FAIR" indicates few or no clouds below 12,000 feet
with no significant weather and/or obstructions to visibility.
 TC=TEMPERATURE CELSIUS

 * =Non NWS site. Station does not report precipitation (e.g. rain,
    snow, etc.), thunder, or fog.

DCZ001-MDZ009-015-VAZ040>042-051-053>054-251600-
WASHINGTON METRO

CITY           SKY/WX    TMP DP  RH WIND       PRES   REMARKS
WASHINGTON NAT PTSUNNY   65  51  60 S12       30.19F
DULLES         CLOUDY    68  49  50 S8        30.19S
ANDREWS AFB    MOSUNNY   71  49  45 W9        30.18F
FT BELVOIR     MOSUNNY   69  49  48 S6        30.19F
QUANTICO       SUNNY     57  50  77 S12       30.21F
COLLEGE PARK*  PTSUNNY   66  48  52 SW5       30.18F
LEESBURG*      CLOUDY    70  54  56 SW3       30.20S
MANASSAS*      MOSUNNY   69  51  52 SW9       30.20F

$$

MDZ006>007-011-014-251600-
BALTIMORE METRO

CITY           SKY/WX    TMP DP  RH WIND       PRES   REMARKS
BWI AIRPORT    CLOUDY    69  50  50 SW6       30.17F
MD SCIENCE CTR   N/A     69  48  47 MISG      30.21S
MARTIN STATE   CLOUDY    64  54  68 CALM      30.19F
ANNAPOLIS      PTSUNNY   71  51  49 VRB6      30.18F
FORT MEADE*    PTSUNNY   70  48  46 SW7       30.20F

$$

MDZ012-015-019>023-251600-
MARYLAND EASTERN SHORE

CITY           SKY/WX    TMP DP  RH WIND       PRES   REMARKS
OCEAN CITY     MOSUNNY   66  49  54 SW18G24   30.21F
SALISBURY      MOSUNNY   67  50  54 W15G22    30.21F
BAY BRIDGE AP* MOSUNNY   70  50  49 S7        30.18F
CAMBRIDGE*     SUNNY     66  50  55 VRB6      30.20F
EASTON*        MOSUNNY   66  48  52 SW10      30.23F

$$

MDZ017>025-251600-
SOUTHERN MARYLAND

CITY           SKY/WX    TMP DP  RH WIND       PRES   REMARKS
PATUXENT RIVER PTSUNNY   67  52  58 W17G24    30.20F
ST INIGOES     PTSUNNY   65  50  58 SW8       30.21F
LEONARDTOWN*   MOSUNNY   66  48  52 SW15      30.22S

$$

MDZ003>005-251600-
NORTH CENTRAL MARYLAND

CITY           SKY/WX    TMP DP  RH WIND       PRES   REMARKS
FREDERICK*     SUNNY     66  54  63 SW7       30.21R
HAGERSTOWN APT CLOUDY    67  50  54 SW8       30.17S
WESTMINSTER*   CLOUDY    66  52  59 SW10      30.18S

$$

MDZ501>502-251600-
WESTERN MARYLAND

CITY           SKY/WX    TMP DP  RH WIND       PRES   REMARKS
OAKLAND*       CLOUDY    55  45  67 SW9G18    30.25R
CUMBERLAND*    CLOUDY    72  50  46 SW5       30.22S

$$

VAZ025>031-251600-
SHENANDOAH VALLEY

CITY           SKY/WX    TMP DP  RH WIND       PRES   REMARKS
WINCHESTER*    CLOUDY    64  48  55 SW7       30.20R
FRONT ROYAL*   CLOUDY    68  50  52 S8        30.19S
LURAY*         MOSUNNY   68  52  56 SW7       30.21F
NEW MARKET*    MOSUNNY   67  49  52 CALM      30.21F
STAUNTON*      MOSUNNY   68  49  51 SW8       30.25S
WAYNESBORO*    MOSUNNY   66  50  56 SW10G16   30.25R

$$

WVZ021-048>050-054>055-251600-
EASTERN WEST VIRGINIA PANHANDLE

CITY           SKY/WX    TMP DP  RH WIND       PRES   REMARKS
MARTINSBURG    PTSUNNY   68  50  52 S8        30.17S
PETERSBURG*    CLOUDY    71  53  51 CALM      30.20S

$$

VAZ036>039-050-251600-
CENTRAL FOOTHILLS

CITY           SKY/WX    TMP DP  RH WIND       PRES   REMARKS
CHARLOTTESVILL CLOUDY    70  49  47 S6        30.22S
CULPEPER*      MOSUNNY   70  52  53 SW7       30.21S
ORANGE*        SUNNY     70  50  49 SW9       30.23S
GORDONSVILLE*  MOSUNNY   67  51  54 SW12      30.21F
WARRENTON*     MOSUNNY   71  46  41 SW7       30.20S

$$

VAZ055>057-251600-
NORTH AND CENTRAL PIEDMONT

CITY           SKY/WX    TMP DP  RH WIND       PRES   REMARKS
FREDERICKSBRG* MOSUNNY   69  52  53 SW8       30.20F
STAFFORD*      MOSUNNY   68  49  51 SW5       30.24F

$$

NCZ024-NYZ072-PAZ021-071-VAZ022-071-251600-
OTHER REGIONAL OBSERVATIONS

CITY           SKY/WX    TMP DP  RH WIND       PRES   REMARKS
NEW YORK CITY  CLOUDY    58  39  49 VRB5      30.17F
PHILADELPHIA   CLOUDY    63  48  58 SW10      30.17S
PITTSBURGH     CLOUDY    69  50  50 W12       30.16S
ROANOKE        CLOUDY    66  47  50 VRB5      30.28F
RICHMOND       PTSUNNY   68  51  54 SW15      30.25S
RALEIGH        CLOUDY    65  52  62 SW16      30.34S

$$

ANZ530>537-251600-
MARINE OBSERVATIONS

STATION/POSITION TIME  TEMP    WIND        PRES
                       AIR SEA DIR/SP/G
                 (UTC) (F)     (DEG/KT/KT) (MB)
THOMAS PT LIGHT  1500   57 45  160/ 13/ 13   N/A
BALT KEY BRIDGE  1448   64     310/  1/  2 1021.8F
COVE POINT       1448   64     270/ 17/ 25 1022.5F
LEWISETTA        1448   63 48  260/ 11/ 14 1022.8F
SOLOMONS ISLAND  1448   63 46  250/ 11/ 12   N/A
PINEY POINT      1436          280/  8/  9   N/A

$$





USA.gov is the U.S. government's official web portal to all federal, state and local government web resources and services.